Temp
51 53 51 50 52 49 51 53 54 55 55 55 58 59 56 56 57 55 54 53 52 51 52 51 50 48 46 46 46 46 44 44 38 37 38 45 44 46 46 48 48 48 47
51 52 52 50 48 47 46 45 47 48 51 51 52 52 58 56 55 56 53 54 53 52 52 49 49 47 46 46 46 44 44 42 40 33 36 39 41 44 45 43 44 47 46
49 49 48 47 46 44 46 45 45 46 47 48 49 50 50 52 55 53 55 54 53 53 52 50 49 47 46 45 46 44 43 42 40 36 35 39 39 42 40 41 42 43 43
49 49 45 44 43 41 41 41 43 44 43 44 42 42 42 45 48 52 52 53 52 52 51 51 50 47 46 44 44 43 42 38 38 37 35 34 35 37 37 34 34 38 38
47 46 44 41 43 42 41 41 42 42 42 42 42 44 45 46 46 48 51 50 50 50 49 49 49 48 47 46 45 43 40 38 37 34 33 33 32 32 31 34 33 34 34
45 41 41 40 40 39 38 38 38 39 41 43 43 43 43 46 43 42 44 49 50 50 48 48 49 46 46 44 44 43 42 38 36 35 34 33 32 33 33 33 32 30 28
41 39 39 39 38 38 38 37 36 36 37 37 38 39 39 41 41 41 41 46 50 49 48 48 47 46 45 45 42 41 40 40 39 39 35 36 33 35 35 33 32 33 33
38 39 38 37 36 37 37 35 34 35 34 35 36 37 37 39 39 40 40 45 46 49 49 49 47 45 45 45 42 40 40 40 39 42 40 40 39 40 38 37 35 36 35
37 37 37 37 36 36 35 35 35 34 34 34 36 36 36 37 38 39 39 43 44 45 48 50 48 46 43 43 41 38 38 38 39 41 41 40 40 39 39 36 33 31 28
37 37 37 36 36 36 37 36 35 35 34 35 35 36 35 35 36 37 38 40 40 41 42 45 41 46 40 39 41 38 34 33 34 35 36 37 37 37 36 38 36 34 30
40 38 38 37 36 36 36 36 36 34 34 34 33 34 34 34 35 37 38 38 38 38 39 39 40 39 39 39 41 39 37 34 33 33 33 33 33 33 34 35 37 36 32
39 38 36 38 38 37 36 35 35 35 33 33 33 33 35 33 34 36 37 37 37 36 35 36 36 38 38 38 38 38 34 34 33 32 32 31 31 31 32 34 35 35 35
37 36 36 35 37 38 35 34 34 35 34 34 34 33 35 35 34 33 35 35 35 34 34 35 36 37 37 36 35 33 33 33 32 31 31 31 32 33 33 31 30 31 32
35 35 36 35 35 38 38 36 33 34 34 34 34 34 35 35 34 34 34 34 34 33 33 35 35 35 35 33 32 33 33 33 33 32 32 31 29 29 30 31 31 30 26
35 35 35 37 36 34 36 35 34 34 35 34 34 34 33 33 33 33 33 33 32 32 32 33 32 32 32 32 32 32 32 32 31 27 27 27 28 29 31 32 31 30 28
33 34 35 35 34 34 35 34 35 32 33 33 33 33 34 33 32 33 33 32 32 32 32 30 30 31 30 29 30 31 30 27 27 29 29 29 29 29 29 30 31 29 27
33 33 34 33 33 33 33 32 32 34 33 33 33 33 33 33 33 33 32 32 31 31 30 29 30 29 29 28 27 27 26 27 28 29 29 29 30 29 28 28 29 29 29
34 33 33 33 32 32 33 32 33 32 32 33 33 33 33 33 33 33 32 32 30 30 29 29 28 29 28 27 27 25 25 27 28 28 28 29 29 28 27 28 29 29 29
34 33 33 32 33 33 32 32 33 32 32 33 33 32 33 33 32 32 31 32 29 29 29 28 29 29 28 28 27 27 28 28 28 27 28 28 28 29 29 30 30 28 28
34 32 32 32 32 32 32 32 32 33 32 33 33 33 32 32 31 31 31 31 31 30 29 29 29 29 28 28 27 27 27 27 27 27 27 28 30 31 30 29 29 27 30
33 32 32 33 32 32 32 31 32 32 32 32 33 33 32 32 31 31 30 30 31 31 30 29 29 29 28 27 27 27 27 27 28 28 29 30 30 30 30 30 29 31 31
31 31 32 32 33 32 32 32 32 33 33 32 33 32 31 32 31 31 30 30 30 31 31 31 29 29 29 28 28 28 28 27 28 29 29 29 30 30 30 30 30 30 29
31 29 29 32 33 32 32 33 32 33 33 33 33 32 32 32 31 31 30 30 29 29 29 30 29 28 29 29 30 30 29 28 29 29 28 28 29 29 29 29 29 28 28
30 30 29 28 30 31 31 31 32 32 32 33 32 32 32 32 31 31 31 30 29 29 29 29 29 29 29 30 31 31 32 31 30 29 29 29 29 28 29 29 29 28 28
28 28 28 27 27 29 30 31 32 32 32 32 32 32 33 33 32 31 31 30 29 28 28 29 29 29 28 29 29 30 29 28 29 29 30 29 28 28 28 28 29 28 28
27 27 28 29 28 28 28 29 31 32 32 32 32 32 33 33 33 32 31 30 29 29 28 28 28 29 28 29 29 28 26 26 27 27 30 30 28 28 27 28 26 27 26
MSLP
1009.67 1009.15 1008.62 1008.81 1008.84 1008.47 1008.89 1008.54 1008.44 1008.20 1006.99 1006.44 1006.52 1006.57 1006.87 1007.06 1006.78 1006.98 1007.37 1008.48 1009.33 1009.81 1010.17 1010.96 1011.59 1012.48 1013.56 1014.40 1015.24 1016.14 1016.51 1018.46 1020.36 1023.10 1024.59 1025.03 1025.82 1025.88 1026.98 1027.46 1028.15 1028.75 1029.96
1009.39 1009.31 1009.26 1008.81 1009.37 1009.49 1009.13 1008.91 1008.99 1008.26 1006.55 1006.56 1006.83 1006.70 1006.11 1006.07 1006.15 1006.48 1006.78 1007.25 1007.81 1008.10 1009.23 1010.35 1010.87 1012.01 1012.85 1013.23 1014.29 1015.17 1015.97 1016.73 1018.71 1021.60 1023.77 1024.48 1025.71 1026.28 1026.85 1027.60 1028.39 1028.77 1029.82
1009.05 1008.93 1008.80 1008.92 1009.52 1009.42 1008.72 1008.67 1008.18 1007.13 1007.00 1006.88 1006.64 1006.39 1006.08 1005.76 1005.43 1005.98 1006.07 1006.19 1006.45 1007.01 1007.37 1008.90 1009.84 1010.71 1011.67 1012.44 1013.45 1014.54 1015.50 1016.26 1017.92 1020.02 1022.07 1023.99 1025.00 1025.83 1027.43 1028.01 1028.31 1028.94 1030.29
1008.81 1009.07 1009.25 1009.48 1009.67 1009.44 1009.23 1008.93 1008.12 1007.84 1007.56 1007.23 1007.18 1006.96 1006.61 1006.21 1005.77 1005.17 1005.42 1005.17 1005.52 1005.86 1006.61 1007.04 1008.20 1009.11 1010.04 1011.23 1011.99 1013.17 1014.82 1016.00 1017.19 1019.06 1021.53 1022.98 1023.74 1025.34 1027.05 1027.65 1028.55 1029.50 1030.06
1008.97 1009.26 1009.54 1009.65 1009.49 1009.39 1009.23 1008.70 1008.26 1008.02 1007.80 1007.47 1006.93 1006.58 1006.29 1005.89 1005.48 1005.03 1004.40 1004.62 1004.60 1005.03 1005.53 1006.00 1006.84 1007.86 1008.58 1009.78 1010.91 1012.30 1013.73 1014.91 1016.41 1018.17 1020.97 1021.60 1022.68 1024.00 1025.49 1026.91 1028.32 1029.40 1030.53
1009.06 1009.44 1009.95 1009.91 1009.86 1009.69 1009.24 1008.95 1008.64 1008.25 1007.74 1007.15 1006.51 1006.15 1005.71 1005.15 1004.76 1004.59 1004.58 1003.76 1003.86 1003.84 1004.60 1005.28 1005.82 1007.42 1007.81 1008.39 1009.67 1010.74 1011.64 1013.41 1015.47 1016.20 1018.74 1020.05 1020.87 1021.82 1024.19 1025.48 1026.89 1028.17 1029.99
1009.49 1010.02 1009.91 1009.59 1009.41 1009.23 1009.21 1009.05 1008.88 1008.55 1008.09 1007.61 1007.04 1006.48 1005.80 1005.12 1004.63 1004.20 1003.93 1003.79 1003.14 1002.38 1003.45 1004.28 1005.39 1006.45 1007.36 1008.22 1009.09 1009.98 1010.81 1011.49 1011.50 1012.87 1015.66 1017.56 1019.12 1019.28 1021.37 1024.00 1025.40 1026.75 1027.91
1009.81 1009.79 1009.57 1009.58 1009.44 1009.39 1009.19 1008.91 1008.63 1008.31 1007.85 1007.26 1006.73 1006.14 1005.52 1004.71 1004.20 1003.67 1003.24 1003.03 1002.92 1002.30 1002.50 1003.47 1004.19 1005.38 1006.21 1007.42 1008.44 1010.01 1011.02 1011.39 1012.13 1011.90 1012.40 1014.63 1017.05 1018.31 1019.69 1021.32 1023.61 1026.33 1028.21
1009.77 1009.74 1009.73 1009.64 1009.43 1009.05 1008.76 1008.47 1008.15 1007.75 1007.34 1006.82 1006.28 1005.69 1005.15 1004.32 1003.60 1003.00 1002.78 1002.33 1002.14 1001.80 1001.84 1002.20 1003.28 1004.12 1004.87 1006.24 1007.59 1009.16 1010.63 1011.71 1012.56 1012.44 1013.31 1014.84 1016.94 1017.98 1019.35 1021.99 1023.78 1025.64 1027.64
1010.17 1009.98 1009.79 1009.53 1009.34 1008.98 1008.65 1008.38 1008.07 1007.69 1007.04 1006.41 1005.85 1005.29 1004.77 1003.98 1003.10 1002.47 1002.14 1001.81 1001.48 1001.60 1001.65 1001.71 1002.39 1003.16 1004.08 1005.29 1006.63 1008.21 1010.02 1011.03 1012.04 1013.54 1014.67 1016.01 1017.46 1019.03 1019.66 1020.18 1021.29 1023.40 1026.15
1010.41 1010.10 1009.71 1009.36 1008.87 1008.52 1008.23 1008.00 1007.60 1007.16 1006.73 1006.16 1005.48 1004.87 1004.39 1003.81 1002.78 1001.92 1001.38 1001.16 1001.00 1001.06 1001.27 1001.71 1002.03 1002.47 1003.51 1004.47 1005.56 1006.87 1007.84 1010.10 1011.63 1012.63 1014.35 1015.98 1018.10 1019.43 1020.64 1021.46 1021.69 1022.54 1024.89
1010.48 1010.02 1009.52 1009.02 1008.54 1008.22 1007.87 1007.40 1007.07 1006.80 1006.38 1005.78 1005.23 1004.65 1004.10 1003.55 1002.77 1002.05 1001.42 1000.98 1000.82 1001.00 1001.23 1001.55 1001.94 1002.27 1003.08 1004.11 1005.12 1006.41 1008.07 1009.41 1010.97 1012.32 1014.24 1015.86 1017.62 1019.23 1020.69 1021.78 1022.52 1023.65 1024.57
1010.70 1010.24 1009.66 1009.04 1008.41 1007.83 1007.51 1007.10 1006.71 1006.39 1006.10 1005.58 1005.13 1004.60 1003.99 1003.50 1002.94 1002.58 1001.83 1001.43 1001.23 1001.30 1001.38 1001.43 1001.71 1002.40 1003.50 1004.72 1005.51 1006.73 1008.13 1009.09 1010.55 1012.10 1013.70 1015.52 1017.25 1018.38 1020.51 1022.19 1023.53 1024.21 1025.23
1010.70 1010.15 1009.55 1008.89 1008.10 1007.57 1007.24 1006.76 1006.40 1006.03 1005.72 1005.46 1005.10 1004.65 1004.15 1003.71 1003.37 1002.99 1002.52 1002.12 1001.92 1001.82 1001.93 1002.11 1002.44 1003.23 1004.18 1005.08 1006.43 1007.43 1008.23 1009.18 1010.14 1011.84 1013.63 1015.78 1017.19 1019.01 1020.67 1021.98 1022.90 1024.61 1026.01
1010.98 1010.35 1009.64 1008.73 1008.00 1007.53 1007.08 1006.50 1006.01 1005.71 1005.53 1005.35 1005.06 1004.79 1004.39 1003.92 1003.71 1003.57 1003.20 1002.79 1002.49 1002.41 1002.56 1002.88 1003.44 1004.16 1005.05 1006.17 1007.18 1008.12 1008.83 1009.47 1010.56 1012.67 1014.14 1015.83 1017.04 1019.10 1020.62 1021.83 1022.45 1024.27 1025.42
1011.05 1010.29 1009.42 1008.65 1007.95 1007.49 1006.89 1006.10 1005.60 1005.45 1005.28 1005.09 1004.95 1004.89 1004.44 1004.25 1003.97 1003.84 1003.65 1003.57 1003.45 1003.22 1003.15 1003.48 1004.10 1004.70 1005.54 1006.57 1007.38 1008.33 1009.17 1010.30 1011.51 1012.70 1014.11 1015.53 1016.79 1018.48 1020.07 1021.71 1022.30 1023.64 1025.08
1010.88 1010.14 1009.38 1008.66 1008.07 1007.50 1006.84 1006.17 1005.37 1004.98 1005.00 1004.81 1004.64 1004.58 1004.46 1004.25 1004.19 1004.11 1004.12 1004.16 1004.15 1004.01 1004.07 1004.48 1004.85 1005.58 1006.34 1007.05 1007.84 1008.67 1009.75 1010.77 1011.88 1012.84 1014.16 1015.61 1016.63 1018.23 1019.52 1020.83 1021.84 1023.06 1025.03
1010.64 1009.98 1009.42 1008.74 1008.14 1007.50 1006.82 1006.16 1005.55 1005.06 1004.76 1004.61 1004.55 1004.48 1004.47 1004.41 1004.37 1004.47 1004.51 1004.53 1004.69 1004.86 1004.95 1005.21 1005.63 1006.25 1006.97 1007.52 1008.30 1009.02 1010.14 1011.39 1012.43 1013.23 1014.44 1015.63 1016.71 1017.65 1019.09 1019.95 1021.34 1022.63 1024.34
1010.47 1009.85 1009.31 1008.67 1008.04 1007.48 1006.86 1006.19 1005.54 1004.99 1004.71 1004.53 1004.52 1004.53 1004.58 1004.64 1004.74 1004.90 1004.94 1004.69 1004.88 1005.17 1005.59 1005.99 1006.32 1006.85 1007.48 1008.05 1008.76 1009.56 1010.38 1011.55 1012.59 1013.64 1014.88 1015.96 1016.62 1017.49 1018.71 1019.93 1021.26 1022.65 1023.93
1010.41 1009.83 1009.20 1008.58 1007.88 1007.24 1006.66 1006.03 1005.50 1004.95 1004.60 1004.44 1004.35 1004.38 1004.61 1004.84 1005.01 1005.13 1005.15 1005.14 1005.22 1005.55 1005.93 1006.33 1006.77 1007.23 1007.81 1008.43 1009.19 1010.02 1010.90 1012.02 1013.07 1014.04 1015.03 1015.76 1016.74 1017.70 1018.68 1019.80 1021.09 1022.41 1023.54
1010.46 1009.82 1009.11 1008.40 1007.82 1007.23 1006.53 1005.94 1005.39 1004.93 1004.45 1004.27 1004.18 1004.32 1004.46 1004.58 1004.70 1005.05 1005.28 1005.41 1005.50 1005.75 1006.18 1006.63 1007.12 1007.60 1008.18 1008.85 1009.55 1010.38 1011.26 1012.16 1013.00 1013.93 1014.95 1016.01 1016.99 1017.80 1018.96 1019.94 1021.05 1022.18 1023.27
1010.58 1009.93 1009.12 1008.37 1007.65 1007.06 1006.25 1005.75 1005.17 1004.68 1004.27 1004.00 1003.93 1004.11 1004.29 1004.49 1004.67 1004.97 1005.29 1005.57 1005.85 1006.12 1006.47 1006.90 1007.48 1008.00 1008.49 1009.10 1009.75 1010.39 1011.18 1012.04 1013.13 1014.16 1015.11 1016.11 1017.02 1017.98 1018.91 1019.96 1021.03 1022.03 1023.06
1010.63 1009.99 1009.34 1008.47 1007.63 1006.92 1006.05 1005.45 1005.00 1004.47 1004.02 1003.77 1003.69 1003.77 1003.96 1004.12 1004.36 1004.70 1005.11 1005.57 1006.02 1006.41 1006.81 1007.24 1007.74 1008.30 1008.86 1009.34 1009.80 1010.18 1010.89 1011.91 1012.88 1013.82 1014.88 1015.95 1016.94 1017.95 1018.91 1019.81 1020.73 1021.75 1022.84
1010.55 1009.92 1009.26 1008.67 1007.72 1006.87 1006.07 1005.33 1004.71 1004.22 1003.89 1003.57 1003.39 1003.38 1003.47 1003.66 1003.90 1004.25 1004.72 1005.35 1005.94 1006.39 1006.84 1007.37 1007.87 1008.32 1008.88 1009.39 1009.94 1010.53 1011.12 1011.92 1012.82 1013.80 1014.64 1015.59 1016.65 1017.90 1018.78 1019.62 1020.49 1021.45 1022.37
1010.45 1009.85 1009.25 1008.64 1007.84 1007.02 1006.17 1005.37 1004.60 1003.86 1003.47 1003.23 1003.01 1002.98 1003.03 1003.20 1003.47 1003.78 1004.29 1004.92 1005.57 1006.18 1006.77 1007.33 1007.87 1008.29 1008.74 1009.22 1009.79 1010.45 1011.16 1011.97 1012.76 1013.72 1014.69 1015.63 1016.55 1017.47 1018.27 1019.23 1020.13 1021.28 1022.40
1010.25 1009.72 1009.13 1008.43 1007.77 1007.15 1006.40 1005.53 1004.57 1003.78 1003.11 1002.79 1002.61 1002.53 1002.59 1002.72 1002.94 1003.27 1003.75 1004.38 1005.01 1005.61 1006.20 1006.86 1007.49 1008.00 1008.57 1009.17 1009.78 1010.45 1011.22 1012.02 1012.87 1013.63 1014.56 1015.46 1016.50 1017.35 1018.23 1018.98 1019.99 1021.01 1022.01
Wind_Speed
13 11 6 6 7 6 6 7 8 8 6 7 10 13 11 14 13 15 15 14 14 13 13 16 17 16 12 11 13 13 12 10 10 5 4 13 13 14 13 13 14 14 12
12 8 5 4 4 4 4 5 8 8 8 8 8 8 13 12 12 15 15 16 19 21 19 16 16 12 15 16 14 17 14 13 12 16 13 12 14 15 13 14 11 12 13
9 3 3 5 7 7 7 7 9 9 9 8 9 11 8 9 12 13 17 17 19 19 19 20 19 20 18 16 15 14 13 11 14 13 11 13 12 13 13 12 14 15 10
4 4 4 5 7 8 8 9 9 9 9 8 7 7 9 9 9 11 14 16 16 17 17 20 21 21 20 19 17 18 16 15 16 15 15 15 14 15 12 12 12 10 12
1 3 5 5 7 9 9 10 11 10 9 9 10 10 10 10 8 10 13 13 15 15 15 16 18 23 27 24 15 17 18 14 15 17 14 16 15 16 16 12 11 11 10
4 6 4 6 7 8 8 9 9 10 11 12 12 12 12 9 12 13 13 13 16 17 16 17 15 23 25 32 30 31 28 23 19 17 14 18 20 20 16 16 15 15 13
6 4 6 8 9 10 8 7 7 9 9 10 10 11 12 12 15 18 16 11 12 13 15 15 14 15 21 19 24 31 34 37 36 29 26 24 24 23 23 21 19 17 10
6 7 9 8 6 7 6 6 6 6 8 8 9 10 10 11 16 18 17 13 11 11 14 17 16 15 20 20 18 20 20 22 23 19 27 27 23 24 23 22 22 16 14
8 8 6 6 7 7 7 7 7 8 8 9 8 11 11 12 16 14 13 12 12 10 11 15 16 16 24 26 20 21 18 15 15 18 24 28 31 32 26 18 17 16 14
8 8 6 6 6 6 6 6 5 8 8 7 10 10 11 11 13 15 12 8 8 7 8 9 18 16 25 30 21 21 18 15 16 16 15 19 25 26 34 22 21 18 16
11 9 8 7 6 6 7 5 7 7 7 7 9 9 8 8 9 14 13 6 7 6 6 7 7 16 28 33 30 22 24 20 18 17 15 15 15 17 14 12 15 16 17
11 13 13 12 9 6 7 6 6 7 8 9 7 8 6 7 10 8 6 2 5 6 6 5 7 19 28 32 25 24 29 22 15 15 16 16 16 14 11 12 10 12 4
13 13 12 10 11 11 8 8 6 5 6 8 7 7 7 5 5 10 7 2 4 2 3 6 14 22 25 16 20 30 25 15 16 16 16 14 14 14 14 12 12 14 11
13 12 11 10 11 11 8 6 5 5 5 6 7 7 6 5 4 4 3 4 7 7 8 9 12 14 14 16 19 18 13 13 16 15 14 12 11 12 13 12 12 10 11
12 11 11 11 12 12 10 8 6 6 5 5 6 6 6 5 3 5 3 1 2 7 11 8 10 10 12 12 10 11 11 13 14 13 15 14 14 13 12 12 12 10 8
11 9 9 9 9 9 9 9 8 10 10 10 10 6 3 6 4 3 3 10 9 8 8 9 9 10 11 11 11 11 11 14 13 14 14 14 15 14 14 12 11 10 11
10 10 9 9 9 9 9 8 8 4 6 7 7 8 9 4 6 5 11 9 8 5 6 8 9 9 9 9 10 11 11 11 13 13 14 14 15 14 17 14 11 11 11
11 10 8 8 8 8 10 8 6 5 6 4 3 4 6 7 7 12 12 9 5 6 5 7 8 9 9 9 10 11 11 11 11 12 13 13 14 15 14 14 12 13 13
10 8 8 8 8 9 8 9 7 5 5 4 2 1 3 7 10 10 4 3 5 5 6 6 8 9 9 9 10 10 12 11 12 12 11 12 13 13 13 13 12 15 15
11 12 9 8 8 8 7 7 8 6 5 4 4 3 4 5 7 6 2 3 5 6 6 7 7 8 9 10 10 11 11 12 12 11 11 11 11 12 13 14 13 14 13
9 10 11 8 8 8 7 7 8 7 5 5 4 4 7 6 6 6 4 4 5 6 7 7 7 8 8 9 10 10 10 10 11 11 11 12 12 12 12 12 12 12 13
9 9 10 9 9 8 8 8 6 7 6 6 4 5 9 6 6 6 6 5 5 5 6 8 7 7 8 10 10 10 11 11 12 12 12 12 11 11 11 12 12 12 12
9 10 9 10 10 11 8 9 7 7 7 6 5 5 7 7 7 7 7 6 6 6 6 6 7 7 7 8 9 10 12 12 12 12 13 12 12 12 11 13 13 13 13
9 10 10 9 9 10 9 9 8 7 7 6 5 6 7 7 7 8 7 7 7 7 7 7 7 11 10 9 9 9 9 10 11 13 17 14 13 14 12 13 13 15 13
8 9 9 9 10 10 11 11 10 8 6 6 5 6 6 7 7 8 8 8 8 9 9 9 8 12 15 15 14 14 14 17 15 16 11 14 15 18 14 12 14 14 15
9 10 10 9 9 10 10 10 10 9 8 7 6 7 6 7 7 8 8 9 9 9 10 8 10 15 17 14 16 17 18 19 17 19 13 13 14 13 13 14 19 13 16
Wind_Direction
298 294 316 313 330 345 321 323 313 302 316 328 284 245 227 229 206 193 190 184 194 204 199 200 191 173 172 167 166 168 150 153 135 127 134 162 160 148 150 137 138 134 129
297 282 309 351 345 321 317 321 311 305 330 322 302 306 270 224 215 212 204 199 197 192 196 192 185 175 179 170 170 172 166 150 142 143 159 157 157 151 146 137 137 135 133
292 282 35 7 345 335 341 329 327 338 327 315 311 302 293 283 233 223 218 209 202 203 193 194 190 180 179 176 178 172 166 148 146 143 143 158 149 148 143 136 135 131 130
324 325 14 10 358 356 348 340 344 339 324 318 306 290 287 279 273 231 225 221 212 202 199 192 191 187 182 178 175 171 165 151 147 142 155 155 148 151 145 143 137 139 142
273 360 16 12 3 1 351 348 344 336 324 311 298 294 281 277 268 258 231 224 214 200 195 193 193 190 184 179 172 170 160 149 151 147 163 160 158 158 160 152 145 144 141
69 35 14 20 14 5 1 349 335 325 323 320 317 309 297 284 277 263 259 231 214 203 192 188 191 193 189 181 179 171 166 158 161 156 164 174 170 158 159 159 153 155 148
61 36 29 26 19 10 351 339 326 317 306 307 302 297 290 287 271 262 251 255 230 208 191 187 189 190 189 188 182 176 175 173 168 163 167 178 173 170 156 159 161 159 157
57 33 26 12 2 353 339 330 314 309 310 307 300 297 292 290 277 265 249 252 251 207 197 189 186 185 188 185 175 179 183 180 177 174 173 172 171 162 164 160 155 145 131
31 14 358 346 336 340 343 328 327 318 317 316 305 308 296 288 286 279 256 249 239 228 207 190 190 187 183 178 174 175 177 183 187 178 165 157 164 159 152 145 149 147 144
356 342 324 322 311 303 307 313 303 315 302 310 312 305 296 298 300 293 273 255 224 199 189 199 190 189 174 170 171 169 168 168 155 150 148 149 154 160 158 162 153 149 150
349 335 318 302 299 295 291 279 309 318 307 304 309 308 306 304 310 300 279 223 204 184 182 186 196 181 175 174 173 174 170 154 150 138 136 138 148 153 157 157 159 151 161
343 342 342 340 325 302 293 292 290 309 310 310 309 311 311 315 344 335 339 282 177 169 178 169 172 171 175 177 168 165 147 143 141 139 141 145 150 153 153 158 144 146 105
342 341 338 335 337 331 304 299 295 286 305 310 311 311 314 327 340 354 15 83 102 81 140 160 161 164 164 154 146 143 146 143 140 143 143 146 150 142 132 117 103 92 82
339 337 332 327 326 328 320 298 281 281 292 301 304 304 307 316 329 337 356 59 86 86 104 122 129 133 137 136 133 139 141 145 140 137 134 130 124 130 138 142 130 119 112
333 327 325 333 340 333 324 312 288 267 259 287 296 291 293 296 306 315 332 18 87 119 116 114 119 120 126 133 136 135 135 134 128 128 132 134 133 137 141 146 134 139 131
328 325 330 327 328 330 321 316 280 253 276 276 271 272 269 271 247 263 106 112 117 129 114 121 123 129 130 131 131 133 125 125 131 135 135 139 140 143 143 145 143 133 135
320 328 324 330 325 323 321 318 319 308 270 285 286 282 252 217 204 159 134 101 85 86 115 124 125 129 133 129 129 131 127 125 132 134 139 145 144 144 147 147 141 136 143
326 326 327 326 319 317 324 315 310 304 300 297 274 268 236 191 176 154 142 121 99 76 99 125 124 127 127 127 127 123 121 127 134 134 138 145 147 147 148 146 149 147 147
331 328 330 321 313 313 317 319 314 296 280 283 266 205 203 180 157 151 148 151 129 122 123 123 130 134 131 126 125 127 129 133 135 135 140 146 146 146 146 148 145 148 149
331 321 318 324 319 321 316 316 320 309 276 263 247 212 155 152 165 174 170 158 140 131 132 136 133 132 130 131 129 131 128 133 138 140 142 141 145 152 150 148 149 152 161
329 322 318 323 325 316 313 310 315 313 279 262 244 197 185 189 180 181 171 169 162 152 143 137 134 132 129 127 131 133 137 139 139 140 144 148 152 151 150 150 148 155 155
327 325 323 325 326 317 317 309 301 305 296 262 238 203 185 193 184 180 177 171 159 148 145 147 143 144 145 147 147 142 142 142 146 149 149 149 152 147 150 150 155 156 155
328 325 323 321 326 326 319 323 304 304 302 275 247 210 195 200 192 184 179 169 159 151 146 147 146 144 146 150 156 154 153 157 157 153 149 151 152 155 157 158 157 158 165
326 326 324 320 318 327 325 322 310 294 290 286 245 222 209 201 192 190 176 166 163 161 155 159 166 160 157 159 162 163 159 151 153 159 155 155 157 157 160 160 163 166 162
324 322 324 319 322 321 320 325 318 309 293 277 255 234 218 204 194 185 178 170 167 165 166 168 173 171 167 165 165 165 157 156 156 155 156 159 161 164 162 162 162 163 166
314 314 313 312 316 318 313 314 315 317 302 278 259 242 218 207 199 186 177 174 172 173 167 169 174 175 171 170 168 162 158 158 157 160 158 159 161 162 162 162 165 167 168